Booneville, Arkansas, United States (72927)
Lat: 35.14N, Lon: 93.92W
Wx Zone: ARZ030
Local Info
Past Weather Observations for Sunday, July 26, 2015

NOTE: This archive is for the closest National Weather Service station to Booneville. Information may differ from the station used for current weather conditions.

Click here for Long-term Archive

Time Weather Temperature Dewpoint Humidity Pressure Winds Precip Visibility
23:53
Mostly Cloudy
84°F / 29°C 73°F / 23°C 70% 29.92 in
(1013 mb)
Calm - 10SM
22:53
Partly Cloudy
84°F / 29°C 73°F / 23°C 70% 29.89 in
(1012 mb)
SE 3.5 mph
(SE 6 kph)
- 10SM
21:53
Clear
86°F / 30°C 73°F / 23°C 66% 29.89 in
(1012 mb)
ESE 4.6 mph
(ESE 7 kph)
- 10SM
20:53
Clear
88°F / 31°C 73°F / 23°C 62% 29.89 in
(1012 mb)
Calm - 10SM
19:53
Clear
90°F / 32°C 73°F / 23°C 59% 29.86 in
(1011 mb)
ESE 6.9 mph
(ESE 11 kph)
- 10SM
18:53
Clear
91°F / 33°C 75°F / 24°C 59% 29.86 in
(1011 mb)
E 4.6 mph
(E 7 kph)
- 10SM
17:53
Clear
95°F / 35°C 73°F / 23°C 50% 29.86 in
(1011 mb)
E 5.8 mph
(E 9 kph)
- 10SM
16:53
Clear
95°F / 35°C 72°F / 22°C 47% 29.89 in
(1012 mb)
ENE 9.2 mph
(ENE 15 kph)
- 10SM
15:53
Clear
97°F / 36°C 72°F / 22°C 44% 29.89 in
(1012 mb)
ENE 10.4 mph
(ENE 17 kph)
- 10SM
14:53
Clear
97°F / 36°C 73°F / 23°C 47% 29.89 in
(1012 mb)
ENE 10.4 mph
(ENE 17 kph)
- 10SM
13:53
Clear
97°F / 36°C 73°F / 23°C 47% 29.92 in
(1013 mb)
SE 8.1 mph
(SE 13 kph)
- 10SM
12:53
Mostly Cloudy
97°F / 36°C 72°F / 22°C 44% 29.95 in
(1014 mb)
Variable 4.6 mph
(Variable 7 kph)
- 10SM
11:53
Clear
95°F / 35°C 72°F / 22°C 47% 29.95 in
(1014 mb)
Calm - 10SM
10:53
Clear
93°F / 34°C 72°F / 22°C 49% 29.95 in
(1014 mb)
E 4.6 mph
(E 7 kph)
- 10SM
09:53
Clear
90°F / 32°C 72°F / 22°C 55% 29.95 in
(1014 mb)
Calm - 10SM
08:53
Clear
88°F / 31°C 75°F / 24°C 66% 29.95 in
(1014 mb)
E 3.5 mph
(E 6 kph)
- 10SM
07:53
Clear
82°F / 28°C 73°F / 23°C 74% 29.95 in
(1014 mb)
ENE 3.5 mph
(ENE 6 kph)
- 10SM
06:53
Clear
81°F / 27°C 75°F / 24°C 84% 29.95 in
(1014 mb)
E 3.5 mph
(E 6 kph)
- 9SM
05:53
Clear
Fog And Mist
79°F / 26°C 73°F / 23°C 84% 29.95 in
(1014 mb)
ENE 4.6 mph
(ENE 7 kph)
- 6SM
04:53
Clear
79°F / 26°C 75°F / 24°C 89% 29.92 in
(1013 mb)
Calm - 10SM
03:53
Clear
79°F / 26°C 73°F / 23°C 84% 29.92 in
(1013 mb)
E 3.5 mph
(E 6 kph)
- 10SM
02:53
Clear
81°F / 27°C 73°F / 23°C 79% 29.92 in
(1013 mb)
ENE 4.6 mph
(ENE 7 kph)
- 10SM
01:53
Clear
79°F / 26°C 73°F / 23°C 84% 29.92 in
(1013 mb)
ENE 5.8 mph
(ENE 9 kph)
- 10SM
00:53
Clear
81°F / 27°C 72°F / 22°C 74% 29.92 in
(1013 mb)
Calm - 10SM
Time Weather Temperature Dewpoint Humidity Pressure Winds Precip Visibility


Weather for websites

WeatherForYou.com, LLC is not responsible for any damages or problems caused by this service. Current weather conditions are obtained from the closest station including government and personal stations which may have varying degrees of accuracy. Weather forecasts are derived from the NOAA NDFD. Like all things, this site belongs to Jesus Christ... He just trusts us to maintain it. If you have any questions or comments email webmaster@weatherforyou.com

Copyright © 2015, WeatherForYou.com LLC. All rights reserved.